Weather History for Rhinelander, WI

Change the Weather History Date:

Friday, November 28, 2014

  Actual Average Record
Temperature  
Mean Temperature 5 °F 24 °F  
Max Temperature 15 °F 31 °F 56 °F (1909)
Min Temperature -6 °F 16 °F -14 °F (1976)
Degree Days  
Heating Degree Days 60 41  
Month to date heating degree days 1230 957  
Since 1 July heating degree days 2429 2050  
Cooling Degree Days 0 0  
Month to date cooling degree days 0 0  
Year to date cooling degree days 148 261  
Moisture  
Dew Point 7 °F    
Average Humidity 87    
Maximum Humidity 90    
Minimum Humidity 83    
Precipitation  
Precipitation 0.07 in 0.05 in 0.70 in (1934)
Month to date precipitation 3.32 1.72  
Year to date precipitation 39.60 29.84  
Snow  
Snow 0.80 in - 8.00 in (1934)
Month to date snowfall 32.4  
Since 1 July snowfall 35.1  
Since 1 September snowfall 35.1  
Snow Depth 10.00 in    
Sea Level Pressure  
Sea Level Pressure 30.03 in    
Wind  
Wind Speed 5 mph (SE)    
Max Wind Speed 10 mph    
Max Gust Speed 14 mph    
Visibility 6 miles    
Events Fog , Snow    
T = Trace of Precipitation, MM = Missing Value Source: NWS Daily Summary

Daily Weather History Graph

Daily Weather History Graph

Search for Another Location

Airport:

Trip Planner

Search our weather history database for the weather conditions in past years. The results will help you decide how hot, cold, wet, or windy it might be!

Date:

Astronomy

Nov. 28, 2014 Rise Set
Actual Time 7:14 AM CST 4:17 PM CST
Civil Twilight 6:41 AM CST 4:50 PM CST
Nautical Twilight 6:04 AM CST 5:27 PM CST
Astronomical Twilight 5:28 AM CST 6:02 PM CST
Moon 11:57 AM CST (11/28) 11:17 PM CST (11/28)
Length of Visible Light 10h 09m
Length of Day
9h 02m
Waxing Crescent, 42% of the Moon is Illuminated
Nov 28
Waxing Crescent
Nov 29
First Quarter
Dec 6
Full
Dec 14
Last Quarter
Dec 21
New

Hourly Weather History & Observations

Time (CST) Temp. Windchill Dew Point Humidity Pressure Visibility Wind Dir Wind Speed Gust Speed Precip Events Conditions
12:53 AM -2.9 °F - -6.0 °F 87% 30.35 in 10.0 mi Calm Calm - N/A   Overcast
1:53 AM -0.9 °F - -4.0 °F 87% 30.36 in 10.0 mi Calm Calm - N/A   Overcast
2:53 AM 1.0 °F - -2.9 °F 83% 30.32 in 10.0 mi Calm Calm - N/A   Overcast
3:53 AM 1.9 °F - -2.0 °F 83% 30.29 in 10.0 mi Calm Calm - N/A   Overcast
4:53 AM 3.0 °F -4.4 °F -0.9 °F 84% 30.28 in 10.0 mi ENE 3.5 mph - N/A   Overcast
5:53 AM 3.9 °F -3.4 °F -0.0 °F 84% 30.26 in 8.0 mi South 3.5 mph - 0.00 in Snow Light Snow
6:53 AM 5.0 °F -2.1 °F 1.0 °F 84% 30.23 in 4.0 mi SSE 3.5 mph - 0.00 in Snow Light Snow
7:53 AM 6.1 °F -2.8 °F 1.9 °F 83% 30.21 in 7.0 mi SE 4.6 mph - 0.00 in   Overcast
8:31 AM 6.1 °F -2.8 °F 3.0 °F 87% 30.07 in 1.8 mi SE 4.6 mph - 0.00 in Snow Light Snow
8:40 AM 6.1 °F -2.8 °F 3.0 °F 87% 30.06 in 1.0 mi SE 4.6 mph - 0.00 in Snow Light Snow
8:53 AM 7.0 °F -1.7 °F 3.0 °F 84% 30.19 in 0.8 mi SE 4.6 mph - 0.00 in Snow Light Snow
9:08 AM 7.0 °F -3.3 °F 3.9 °F 87% 30.05 in 1.2 mi SSE 5.8 mph - 0.00 in Snow Light Snow
9:17 AM 8.1 °F -2.0 °F 3.9 °F 83% 30.05 in 1.5 mi SSE 5.8 mph - 0.01 in Snow Light Snow
9:37 AM 8.1 °F -2.0 °F 3.9 °F 83% 30.04 in 3.0 mi SSE 5.8 mph - 0.01 in Snow Light Snow
9:53 AM 9.0 °F -0.9 °F 5.0 °F 84% 30.17 in 4.0 mi SE 5.8 mph - 0.01 in Snow Light Snow
10:06 AM 9.0 °F -0.9 °F 5.0 °F 84% 30.04 in 2.5 mi SSE 5.8 mph - 0.00 in Snow Light Snow
10:15 AM 9.0 °F -0.9 °F 6.1 °F 88% 30.04 in 1.0 mi SSE 5.8 mph - 0.00 in Snow Light Snow
10:53 AM 10.0 °F 1.8 °F 6.1 °F 84% 30.15 in 2.5 mi SE 4.6 mph - 0.01 in Snow Light Snow
11:27 AM 10.9 °F 1.4 °F 7.0 °F 84% 30.00 in 3.0 mi SE 5.8 mph - 0.00 in   Overcast
11:33 AM 10.9 °F 2.9 °F 7.0 °F 84% 29.99 in 1.5 mi ESE 4.6 mph - 0.00 in Snow Light Snow
11:41 AM 10.9 °F 2.9 °F 8.1 °F 88% 29.99 in 0.5 mi SE 4.6 mph - 0.00 in Fog , Snow Snow
11:53 AM 10.9 °F 0.2 °F 8.1 °F 88% 30.11 in 0.8 mi SE 6.9 mph - 0.01 in Snow Light Snow
12:03 PM 12.0 °F 1.5 °F 8.1 °F 84% 29.97 in 1.2 mi SE 6.9 mph - 0.00 in Snow Light Snow
12:10 PM 12.0 °F 0.5 °F 8.1 °F 84% 29.96 in 2.0 mi SE 8.1 mph - 0.00 in Snow Light Snow
12:21 PM 12.0 °F 0.5 °F 9.0 °F 88% 29.95 in 5.0 mi ESE 8.1 mph - 0.00 in Snow Light Snow
12:29 PM 12.9 °F 0.7 °F 8.1 °F 81% 29.94 in 9.0 mi SE 9.2 mph - 0.00 in   Overcast
12:53 PM 12.9 °F 3.8 °F 9.0 °F 84% 30.06 in 10.0 mi SE 5.8 mph - 0.00 in   Overcast
1:39 PM 14.0 °F 6.5 °F 10.0 °F 84% 29.92 in 6.0 mi ESE 4.6 mph - 0.00 in Snow Light Snow
1:53 PM 14.0 °F 3.9 °F 10.0 °F 84% 30.04 in 10.0 mi SE 6.9 mph - 0.00 in   Overcast
2:01 PM 14.0 °F 6.5 °F 10.0 °F 84% 29.92 in 10.0 mi SSE 4.6 mph - N/A   Overcast
2:42 PM 14.0 °F 5.1 °F 9.0 °F 80% 29.90 in 1.8 mi SSE 5.8 mph - 0.00 in Snow Light Snow
2:53 PM 14.0 °F 5.1 °F 10.0 °F 84% 30.01 in 1.8 mi SSE 5.8 mph - 0.00 in Snow Light Snow
3:16 PM 14.0 °F 5.1 °F 10.0 °F 84% 29.89 in 1.5 mi SE 5.8 mph - 0.00 in Snow Light Snow
3:35 PM 14.0 °F 8.2 °F 10.9 °F 88% 29.90 in 2.5 mi SE 3.5 mph - 0.00 in Snow Light Snow
3:53 PM 14.0 °F 2.9 °F 10.0 °F 84% 30.00 in 2.0 mi SE 8.1 mph - 0.00 in Snow Light Snow
4:04 PM 14.0 °F 6.5 °F 10.9 °F 88% 29.89 in 1.8 mi SE 4.6 mph - 0.00 in Snow Light Snow
4:21 PM 15.1 °F 4.2 °F 10.9 °F 84% 29.89 in 3.0 mi SE 8.1 mph - 0.00 in   Overcast
4:53 PM 14.0 °F 2.0 °F 10.0 °F 84% 29.99 in 10.0 mi SE 9.2 mph - 0.00 in   Overcast
5:53 PM 14.0 °F 3.9 °F 10.0 °F 84% 29.98 in 10.0 mi SE 6.9 mph - N/A   Overcast
6:53 PM 14.0 °F 3.9 °F 10.0 °F 84% 29.97 in 10.0 mi SE 6.9 mph - N/A   Overcast
7:25 PM 14.0 °F - 10.0 °F 84% 29.86 in 10.0 mi Calm Calm - N/A   Overcast
7:53 PM 14.0 °F 8.2 °F 10.9 °F 88% 29.96 in 10.0 mi ESE 3.5 mph - N/A   Overcast
8:53 PM 14.0 °F 5.1 °F 10.9 °F 88% 29.93 in 10.0 mi SE 5.8 mph - N/A   Overcast
9:14 PM 14.0 °F 2.9 °F 10.9 °F 88% 29.80 in 10.0 mi SE 8.1 mph - N/A   Scattered Clouds
9:53 PM 14.0 °F 8.2 °F 10.9 °F 88% 29.90 in 9.0 mi SE 3.5 mph - N/A   Mostly Cloudy
10:53 PM 15.1 °F 9.4 °F 12.9 °F 91% 29.88 in 8.0 mi SE 3.5 mph - N/A   Overcast
11:32 PM 14.0 °F 8.2 °F 12.0 °F 92% 29.77 in 8.0 mi ENE 3.5 mph - N/A   Overcast
11:53 PM 14.0 °F 8.2 °F 12.0 °F 92% 29.86 in 7.0 mi East 3.5 mph - N/A   Overcast